User: anonymous   Login
Location: Katowice
(50.2611°N, 19.0242°E)
Time: 08:17:40
(UTC+02:00)
Language:

Explorer 7 - Orbit

View from above orbital plane
View from above orbital plane
View from above satellite
View from above satellite

Ground track
Ground track

The orbit data is extracted from the following two-line orbital elements,

1    22U 59009A   19199.55835958 -.00000125  00000-0  14269-4 0  9999
2    22  50.2826 233.0987 0140023  59.4370 302.0308 14.94885218175222
Epoch (UTC): 18 July 2019 13:24:02
Eccentricity: 0.0140023
inclination: 50.2826°
perigee height: 485 km
apogee height: 680 km
right ascension of ascending node: 233.0987°
argument of perigee: 59.4370°
revolutions per day: 14.94885218
mean anomaly at epoch: 302.0308°
orbit number at epoch: 17522

The dashed part of the orbit path shows where the satellite is in the earth's shadow,  

DLR